EW5975 Weather Reports


time (UTC)temp
C
wind
direction
speed
KPH
gust
KPH
rain 1hr
cm
rain 24hr
cm
rain mn
cm
humidity
%
barometer
mb
20260505180017 15 0.0 0.0 0.00 2.31 1.98 88 1010.8
20260505175017 15 0.0 0.0 0.00 2.34 1.98 89 1010.9
20260505174017 15 0.0 1.6 0.00 2.44 1.98 89 1010.9
20260505173017 16 0.0 0.0 0.00 2.46 1.98 89 1010.9
20260505172017 16 0.0 0.0 0.00 2.46 1.98 88 1011.0
20260505171017 16 0.0 0.0 0.00 2.49 1.98 88 1011.2
20260505170036 16 0.0 0.0 0.00 2.49 1.98 88 1011.1
20260505165040 16 0.0 0.0 0.00 2.49 1.98 87 1011.1
20260505164017 16 0.0 0.0 0.00 2.49 1.98 87 1011.2
20260505163038 16 0.0 0.0 0.00 2.49 1.98 88 1011.2
20260505162057 16 0.0 0.0 0.00 2.49 1.98 87 1011.3
20260505161017 16 0.0 0.0 0.00 2.51 1.98 87 1011.1
20260505153018 16 113 1.6 4.8 0.00 2.54 1.98 87 1011.3
20260505152017 16 225 1.6 4.8 0.00 2.54 1.98 88 1011.1
20260505151017 16 225 1.6 3.2 0.00 2.54 1.98 90 1011.0
20260505125037 15 113 1.6 6.4 0.05 2.54 1.98 93 1011.6
20260505124018 15 135 1.6 4.8 0.05 2.51 1.96 93 1011.7
20260505123018 15 0.0 3.2 0.03 2.49 1.93 93 1011.5
20260505122017 15 0.0 1.6 0.03 2.49 1.93 93 1011.5
20260505121037 15 113 1.6 4.8 0.00 2.49 1.93 93 1011.5
20260505120018 15 0.0 1.6 0.00 2.49 1.93 93 1011.5
20260505115016 15 0.0 1.6 0.00 2.49 1.93 94 1011.6
20260505114016 15 0.0 0.0 0.00 2.49 1.93 94 1011.5
20260505113017 15 0.0 0.0 0.00 2.49 1.93 94 1011.5
20260505112016 15 0.0 1.6 0.00 2.49 1.93 94 1011.6
20260505111017 15 158 1.6 3.2 0.00 2.49 1.93 94 1011.7
20260505102017 14 0.0 1.6 0.05 2.49 1.93 94 1011.6
20260505101016 13 0.0 1.6 0.05 2.49 1.93 94 1011.7
20260505100017 13 0.0 0.0 0.00 2.44 1.88 94 1011.8
20260505095037 13 0.0 3.2 0.03 2.44 1.88 94 1011.8
20260505094016 13 113 1.6 8.0 0.08 2.44 1.88 93 1011.8
20260505093018 14 0.0 3.2 0.10 2.44 1.88 94 1011.7
20260505092036 14 0.0 3.2 0.13 2.44 1.88 94 1011.6
20260505091016 13 0.0 1.6 0.13 2.44 1.88 94 1011.5
20260505090016 13 0.0 0.0 0.15 2.44 1.88 94 1011.5
20260505085036 13 0.0 0.0 0.18 2.41 1.85 94 1011.5
20260505084016 13 0.0 1.6 0.13 2.36 1.80 94 1011.5
20260505083018 13 0.0 0.0 0.13 2.34 1.78 94 1011.4
20260505082016 13 0.0 1.6 0.10 2.31 1.75 94 1011.3
20260505081017 13 0.0 1.6 0.10 2.31 1.75 94 1011.3
20260505080015 13 0.0 1.6 0.08 2.31 1.75 94 1011.2
20260505075018 13 0.0 0.0 0.03 2.24 1.68 94 1011.3
20260505074016 13 0.0 0.0 0.03 2.24 1.68 94 1011.2
20260505073016 13 0.0 0.0 0.03 2.21 1.65 94 1011.2
20260505072016 13 0.0 0.0 0.03 2.21 1.65 94 1011.2
20260505071016 13 0.0 0.0 0.03 2.21 1.65 94 1011.1
20260505070017 13 0.0 0.0 0.03 2.21 1.65 94 1011.2
20260505065016 13 0.0 1.6 0.03 2.21 1.65 94 1011.0
20260505064015 13 0.0 0.0 0.03 2.21 1.65 94 1010.9
20260505063017 13 0.0 0.0 0.00 2.21 1.65 94 1010.9
20260505062016 13 0.0 0.0 0.00 2.21 1.65 94 1010.7
20260505061015 13 0.0 0.0 0.00 2.21 1.65 94 1010.7
20260505060016 13 0.0 0.0 0.18 2.21 1.65 93 1010.4
20260505055015 13 0.0 0.0 0.38 2.21 1.65 93 1010.4
20260505054037 13 0.0 0.0 0.38 2.21 1.65 93 1010.4
20260505053016 13 0.0 0.0 0.41 2.21 1.65 93 1010.4
20260505052015 13 0.0 0.0 0.41 2.21 1.65 93 1010.3
20260505051015 13 0.0 1.6 0.41 2.21 1.65 93 1010.2
20260505041018 12 0.0 0.0 0.00 1.80 1.24 93 1010.0
20260505040017 12 0.0 0.0 0.00 1.80 1.24 93 1010.2
20260505035017 12 0.0 0.0 0.00 1.80 1.24 93 1010.2
20260505034017 12 0.0 0.0 0.00 1.80 1.24 93 1010.4
20260505033037 12 0.0 1.6 0.00 1.80 1.24 93 1010.4
20260505032018 12 0.0 0.0 0.00 1.80 1.24 93 1010.4
20260505031019 12 0.0 0.0 0.03 1.80 1.24 93 1010.5
20260505030017 12 0.0 0.0 0.03 1.80 1.24 93 1010.6
20260505025017 12 0.0 0.0 0.03 1.80 1.24 93 1010.7
20260505024037 12 0.0 0.0 0.05 1.80 1.24 93 1010.5
20260505023017 12 0.0 0.0 0.10 1.80 1.24 93 1010.7
20260505022017 12 0.0 3.2 0.33 1.80 1.24 93 1010.9
20260505021018 12 0.0 3.2 0.51 1.78 1.22 93 1011.0
20260505020017 12 0.0 3.2 0.66 1.78 1.22 93 1011.2
20260505015018 12 113 1.6 4.8 0.79 1.78 1.22 93 1011.4
20260505014017 12 0.0 3.2 0.86 1.75 1.19 93 1011.5
20260505013017 12 0.0 1.6 0.86 1.70 1.14 92 1011.7
20260505012017 12 0.0 0.0 0.69 1.47 0.91 92 1012.2
20260505011019 12 0.0 0.0 0.53 1.27 0.71 92 1012.3
20260505010017 12 0.0 1.6 0.41 1.12 0.56 92 1012.5
20260505005037 12 0.0 3.2 0.30 0.99 0.43 92 1012.5
20260505004017 12 0.0 0.0 0.23 0.89 0.33 92 1012.3
20260505003017 12 0.0 3.2 0.23 0.84 0.28 92 1012.4
20260505002017 12 0.0 0.0 0.20 0.79 0.23 92 1012.5
20260505001017 12 0.0 0.0 0.15 0.74 0.18 92 1012.7
20260505000017 12 0.0 0.0 0.15 0.71 0.15 92 1012.8
20260504235017 12 0.0 0.0 0.13 0.71 0.15 92 1013.1
20260504234017 12 0.0 0.0 0.08 0.66 0.10 92 1013.0
20260504233017 12 0.0 0.0 0.05 0.61 0.05 92 1013.0
20260504232039 12 0.0 0.0 0.05 0.61 0.05 92 1013.1
20260504231017 12 0.0 0.0 0.03 0.58 0.03 92 1013.2
20260504230017 12 0.0 0.0 0.03 0.58 0.03 92 1013.2
20260504225017 12 0.0 0.0 0.03 0.58 0.03 92 1013.3
20260504224018 12 0.0 0.0 0.03 0.58 0.03 91 1013.3
20260504223017 12 0.0 0.0 0.00 0.56 0.00 91 1013.5
20260504222017 12 0.0 0.0 0.00 0.56 0.00 91 1013.7
20260504221017 12 0.0 1.6 0.00 0.56 0.00 91 1013.8
20260504220016 12 0.0 1.6 0.00 0.56 0.56 91 1013.8
20260504215038 12 0.0 1.6 0.00 0.56 0.56 91 1014.0
20260504214016 12 0.0 0.0 0.00 0.56 0.56 91 1014.3
20260504213037 12 0.0 0.0 0.05 0.56 0.56 90 1014.4
20260504212016 12 0.0 0.0 0.13 0.56 0.56 90 1014.5
20260504211018 12 0.0 0.0 0.23 0.56 0.56 90 1014.6
20260504210016 12 0.0 0.0 0.23 0.56 0.56 90 1014.7
20260504205038 12 0.0 0.0 0.23 0.56 0.56 90 1014.8
20260504204036 12 0.0 0.0 0.23 0.56 0.56 90 1014.9
20260504203019 12 0.0 0.0 0.23 0.51 0.51 90 1015.0
20260504202019 13 0.0 0.0 0.15 0.43 0.43 90 1015.0
20260504201016 13 0.0 1.6 0.08 0.33 0.33 89 1015.1
20260504200118 13 0.0 0.0 0.10 0.33 0.33 89 1015.0
20260504195016 13 0.0 0.0 0.10 0.33 0.33 89 1015.0
20260504194017 13 0.0 0.0 0.10 0.33 0.33 89 1015.0
20260504193017 13 0.0 0.0 0.08 0.30 0.30 89 1014.9
20260504192016 13 0.0 0.0 0.08 0.30 0.30 89 1015.1
20260504191036 14 0.0 3.2 0.05 0.25 0.25 89 1014.9
20260504190016 14 0.0 0.0 0.03 0.23 0.23 89 1014.7
20260504185016 14 0.0 0.0 0.05 0.23 0.23 89 1014.8
20260504184036 14 0.0 0.0 0.15 0.23 0.23 89 1014.7
20260504183016 14 0.0 0.0 0.15 0.23 0.23 88 1014.7
20260504182016 14 0.0 0.0 0.15 0.23 0.23 88 1014.6
20260504181017 14 0.0 0.0 0.15 0.23 0.23 88 1014.6